Regional Weather Roundup
Issued by NWS

Home | Current Version | Previous Version | Text Only | Print | Product List | Glossary Off
Versions: 1 2 3 4 5 6 7 8 9 10 11 12 13 14 15 16 17 18 19 20 21 22 23 24 25 26 27 28 29 30 31 32 33 34 35 36 37 38 39 40 41 42 43 44 45 46 47 48 49 50

000
ASUS45 KCYS 020910
RWRWY

WYOMING REGIONAL WEATHER ROUNDUP
NATIONAL WEATHER SERVICE CHEYENNE WY
300 AM MDT WED SEP 02 2015

NOTE:  "FAIR" INDICATES FEW OR NO CLOUDS BELOW 12,000 FEET
WITH NO SIGNIFICANT WEATHER AND/OR OBSTRUCTIONS TO VISIBILITY.

WYZ001-021000-
YELLOWSTONE NATIONAL PARK

CITY           SKY/WX    TMP DP  RH WIND       PRES   REMARKS
LK YELLOWSTONE   N/A     48  33  56 VRB6      30.15F
W YELLOWSTONE  NOT AVBL

$$
WYZ002>013-054>058-071-098>099-021000-
NORTHERN WYOMING

CITY           SKY/WX    TMP DP  RH WIND       PRES   REMARKS
JACKSON        FAIR      48  37  66 N8        30.07S
CODY           FAIR      64  30  27 SW5       29.92F
GREYBULL       FAIR      68  36  30 S3        29.85R
WORLAND        FAIR      66  38  35 CALM      29.88R
SHERIDAN       FAIR      58  39  49 S5        29.85R
BUFFALO        FAIR      76  37  24 W18       29.92R
GILLETTE       FAIR      74  41  30 SW16      29.87S
HULETT         FAIR      75  37  25 MISG      29.90S
NEWCASTLE        N/A     63  39  42 CALM      29.94S

$$
WYZ014>020-022>026-101>103-021000-
CENTRAL WYOMING

CITY           SKY/WX    TMP DP  RH WIND       PRES   REMARKS
BIG PINEY      FAIR      47  30  51 NE5       30.17R
PINEDALE       FAIR      46  36  66 CALM      30.18S
DUBOIS         FAIR      50  32  50 W6        30.12S
LANDER         FAIR      68  38  33 W7        30.00S
RIVERTON       FAIR      66  39  37 SW8       30.01S
CASPER         FAIR      70  39  32 SW22      30.02R
DOUGLAS        FAIR      66  40  38 NE6       30.00S

$$
WYZ021-027>030-104>119-021000-
SOUTHERN WYOMING

CITY           SKY/WX    TMP DP  RH WIND       PRES   REMARKS
EVANSTON       FAIR      57  38  48 S9        30.17S
KEMMERER       FAIR      54  36  50 S5        30.18S
FORT BRIDGER   SUNNY     63  34  34 SW13      30.18S
ROCK SPRINGS   FAIR      57  42  57 S8        30.16S
DIXON          FAIR      54  45  71 E3        30.24S
RAWLINS        FAIR      62  39  42 SW16      30.17F
SARATOGA       FAIR      54  41  62 SE10      30.22S
LARAMIE        FAIR      52  41  66 S7        30.22S
CHEYENNE       FAIR      65  40  39 W13       30.11F
TORRINGTON     FAIR      64  43  46 CALM      29.96S
PINE BLUFFS    FAIR      54  39  58 CALM      30.07S

$$



USA.gov is the U.S. government's official web portal to all federal, state and local government web resources and services.